Location: Bad Salzschlirf
(50.3750°N, 9.3000°E)
Time: 00:55:30
(UTC+02:00)

ISS - Visible Passes

Search period start: 11 October 2024 00:00
Search period end: 21 October 2024 00:00
Orbit: 412 x 423 km, 51.6° (Epoch: 10 October)

Date Brightness Start Highest point End Pass type
(mag) Time Alt. Az. Time Alt. Az. Time Alt. Az.
17 Oct -1.2 07:10:06 10° SSW 07:12:40 21° SE 07:15:16 10° E visible
18 Oct -0.9 06:22:31 10° S 06:24:21 14° SE 06:26:12 10° ESE visible
19 Oct -2.6 07:08:53 10° SW 07:12:02 41° SSE 07:15:12 10° E visible
20 Oct -2.0 06:21:02 13° SSW 06:23:29 28° SSE 06:26:24 10° E visible
